Retour au catalogue

DELTA 1 R/B(2)

ActifHEO
NORAD 15206·ROCKET BODY·🇺🇸 United States

Lancé Aug 16, 1984 depuis Cape Canaveral Space Force Station

Loading…

Prochains Passages (prochaines 24 heures)

TLE

FraisSource: Space-Track

Époque: Sep 13, 2026, 17:25 UTC

1 15206U 84088F   26256.72606946 -.00000231  00000-0 -91072-3 0  9993
2 15206  27.2535  89.3565 7815160 332.2090   2.0830  1.59002026239881

Suivez DELTA 1 R/B(2) en temps réel avec AllMySat

Download on the App Store